Powrót do katalogu

FENGYUN 1C DEB

LostPO
NORAD 38786·DEBRIS·🇨🇳 China

Wystrzelony May 10, 1999 z Taiyuan Satellite Launch Center

Loading…

Następne Przeloty (najbliższe 24 godziny)

TLE

NieaktualneSource: Space-Track

Epoka: Oct 30, 2024, 14:16 UTC

1 38786U 99025EUA 24304.59486532  .00041015  00000-0  22605-1 0  9999
2 38786  99.5002 258.4245 0203765 207.3576 151.6740 14.01354152682480

Śledź FENGYUN 1C DEB w czasie rzeczywistym z AllMySat

Download on the App Store